H1 CPF 2 NER 2023 6 2 9 153 01 glonass143 H2 2007501 9143 46805 2023 6 2 0 0 0 2023 6 5 23 45 0 900 1 1 0 0 0 1 H9 10 0 60097 0.00000 0 -23611534.179 4556634.841 -8470555.258 10 0 60097 900.00000 0 -22427163.660 4211164.814 -11369428.162 10 0 60097 1800.00000 0 -20963416.823 3627730.181 -14047091.672 10 0 60097 2700.00000 0 -19275379.022 2782083.088 -16451444.804 10 0 60097 3600.00000 0 -17423978.808 1661583.021 -18535714.122 10 0 60097 4500.00000 0 -15473480.454 265989.766 -20259367.162 10 0 60097 5400.00000 0 -13488856.044 -1392270.159 -21588902.324 10 0 60097 6300.00000 0 -11533147.714 -3288375.886 -22498499.931 10 0 60097 7200.00000 0 -9664930.691 -5385912.885 -22970522.052 10 0 60097 8100.00000 0 -7935983.217 -7638169.170 -22995851.745 10 0 60097 9000.00000 0 -6389260.377 -9989873.491 -22574065.626 10 0 60097 9900.00000 0 -5057255.857 -12379303.324 -21713436.818 10 0 60097 10800.00000 0 -3960819.085 -14740675.151 -20430768.671 10 0 60097 11700.00000 0 -3108475.988 -17006717.650 -18751062.756 10 0 60097 12600.00000 0 -2496280.321 -19111320.749 -16707027.835 10 0 60097 13500.00000 0 -2108200.265 -20992150.386 -14338439.509 10 0 60097 14400.00000 0 -1917022.446 -22593120.139 -11691363.076 10 0 60097 15300.00000 0 -1885733.856 -23866616.899 -8817254.850 10 0 60097 16200.00000 0 -1969322.080 -24775388.007 -5771959.545 10 0 60097 17100.00000 0 -2116916.700 -25294011.475 -2614623.375 10 0 60097 18000.00000 0 -2274180.490 -25409888.363 593455.738 10 0 60097 18900.00000 0 -2385848.592 -25123716.449 3790018.285 10 0 60097 19800.00000 0 -2398307.787 -24449426.093 6913050.329 10 0 60097 20700.00000 0 -2262106.474 -23413581.714 9901984.077 10 0 60097 21600.00000 0 -1934289.058 -22054274.567 12698868.653 10 0 60097 22500.00000 0 -1380455.994 -20419553.727 15249488.558 10 0 60097 23400.00000 0 -576462.423 -18565461.197 17504408.506 10 0 60097 24300.00000 0 490316.446 -16553753.349 19419925.019 10 0 60097 25200.00000 0 1820206.918 -14449403.610 20958907.057 10 0 60097 26100.00000 0 3400978.754 -12317990.108 22091510.183 10 0 60097 27000.00000 0 5208119.297 -10223076.454 22795751.178 10 0 60097 27900.00000 0 7205629.638 -8223693.836 23057932.610 10 0 60097 28800.00000 0 9347311.051 -6372028.333 22872909.512 10 0 60097 29700.00000 0 11578489.720 -4711408.701 22244193.082 10 0 60097 30600.00000 0 13838109.598 -3274677.539 21183889.169 10 0 60097 31500.00000 0 16061107.771 -2083012.921 19712472.166 10 0 60097 32400.00000 0 18180974.824 -1145249.059 17858397.847 10 0 60097 33300.00000 0 20132394.606 -457723.910 15657561.635 10 0 60097 34200.00000 0 21853853.964 -4659.816 13152611.725 10 0 60097 35100.00000 0 23290113.826 240939.012 10392129.348 10 0 60097 36000.00000 0 24394438.212 315910.072 7429691.225 10 0 60097 36900.00000 0 25130487.421 265135.432 4322831.863 10 0 60097 37800.00000 0 25473795.361 139400.073 1131925.619 10 0 60097 38700.00000 0 25412768.211 -7003.256 -2080989.641 10 0 60097 39600.00000 0 24949161.617 -118820.561 -5253423.913 10 0 60097 40500.00000 0 24098015.684 -142425.709 -8323657.197 10 0 60097 41400.00000 0 22887049.933 -28341.332 -11231947.765 10 0 60097 42300.00000 0 21355543.397 266416.556 -13921702.082 10 0 60097 43200.00000 0 19552746.871 776270.769 -16340582.764 10 0 60097 44100.00000 0 17535894.196 1525380.837 -18441532.328 10 0 60097 45000.00000 0 15367896.321 2526379.705 -20183692.313 10 0 60097 45900.00000 0 13114815.215 3779603.736 -21533199.684 10 0 60097 46800.00000 0 10843223.691 5272849.483 -22463845.089 10 0 60097 47700.00000 0 8617561.779 6981668.342 -22957580.359 10 0 60097 48600.00000 0 6497600.081 8870187.482 -23004865.827 10 0 60097 49500.00000 0 4536115.680 10892423.258 -22604851.125 10 0 60097 50400.00000 0 2776877.024 12994032.613 -21765386.446 10 0 60097 51300.00000 0 1253020.919 15114429.602 -20502864.437 10 0 60097 52200.00000 0 -14111.814 17189178.903 -18841896.127 10 0 60097 53100.00000 0 -1015634.839 19152566.505 -16814827.412 10 0 60097 54000.00000 0 -1755243.038 20940240.375 -14461105.680 10 0 60097 54900.00000 0 -2248803.932 22491810.900 -11826508.968 10 0 60097 55800.00000 0 -2523432.637 23753302.540 -8962252.779 10 0 60097 56700.00000 0 -2616090.924 24679354.338 -5923992.056 10 0 60097 57600.00000 0 -2571770.885 25235077.442 -2770737.889 10 0 60097 58500.00000 0 -2441341.059 25397492.173 436289.746 10 0 60097 59400.00000 0 -2279147.017 25156484.836 3634850.678 10 0 60097 60300.00000 0 -2140468.524 24515244.643 6762891.408 10 0 60097 61200.00000 0 -2078941.288 23490162.917 9759746.522 10 0 60097 62100.00000 0 -2144052.554 22110199.225 12567311.412 10 0 60097 63000.00000 0 -2378816.491 20415741.304 15131163.753 10 0 60097 63900.00000 0 -2817727.560 18457006.630 17401612.363 10 0 60097 64800.00000 0 -3485078.259 16292052.365 19334653.724 10 0 60097 65700.00000 0 -4393712.302 13984476.413 20892818.357 10 0 60097 66600.00000 0 -5544266.052 11600904.883 22045891.441 10 0 60097 67500.00000 0 -6924930.768 9208369.787 22771494.462 10 0 60097 68400.00000 0 -8511746.601 6871685.099 23055517.278 10 0 60097 69300.00000 0 -10269417.315 4650929.233 22892392.616 10 0 60097 70200.00000 0 -12152613.132 2599137.464 22285207.794 10 0 60097 71100.00000 0 -14107708.931 760299.193 21245651.292 10 0 60097 72000.00000 0 -16074886.807 -832257.569 19793794.648 10 0 60097 72900.00000 0 -17990516.708 -2157028.013 17957713.080 10 0 60097 73800.00000 0 -19789716.990 -3204990.791 15772951.196 10 0 60097 74700.00000 0 -21408988.742 -3979739.625 13281843.024 10 0 60097 75600.00000 0 -22788814.190 -4497081.095 10532698.562 10 0 60097 76500.00000 0 -23876110.409 -4784115.779 7578871.705 10 0 60097 77400.00000 0 -24626435.124 -4877841.719 4477727.103 10 0 60097 78300.00000 0 -25005851.299 -4823339.422 1289525.755 10 0 60097 79200.00000 0 -24992371.293 -4671615.566 -1923748.947 10 0 60097 80100.00000 0 -24576918.797 -4477197.253 -5099601.389 10 0 60097 81000.00000 0 -23763767.095 -4295579.517 -8176245.911 10 0 60097 81900.00000 0 -22570434.321 -4180635.202 -11093816.341 10 0 60097 82800.00000 0 -21027039.447 -4182098.087 -13795538.375 10 0 60097 83700.00000 0 -19175145.633 -4343227.045 -16228841.149 10 0 60097 84600.00000 0 -17066139.320 -4698751.317 -18346385.639 10 0 60097 85500.00000 0 -14759213.104 -5273184.900 -20106989.390 10 0 60098 0.00000 0 -12319037.235 -6079582.222 -21476429.260 10 0 60098 900.00000 0 -9813216.035 -7118788.958 -22428107.248 10 0 60098 1800.00000 0 -7309638.923 -8379219.166 -22943564.944 10 0 60098 2700.00000 0 -4873832.250 -9837170.212 -23012839.440 10 0 60098 3600.00000 0 -2566425.348 -11457661.718 -22634652.297 10 0 60098 4500.00000 0 -440834.635 -13195764.135 -21816429.173 10 0 60098 5400.00000 0 1458738.303 -14998361.499 -20574149.984 10 0 60098 6300.00000 0 3098912.325 -16806274.751 -18932032.843 10 0 60098 7200.00000 0 4458270.380 -18556656.852 -16922058.157 10 0 60098 8100.00000 0 5527995.036 -20185559.517 -14583342.292 10 0 60098 9000.00000 0 6311971.036 -21630564.148 -11961373.104 10 0 60098 9900.00000 0 6826352.396 -22833366.768 -9107122.315 10 0 60098 10800.00000 0 7098614.016 -23742208.713 -6076052.148 10 0 60098 11700.00000 0 7166129.361 -24314051.234 -2927035.685 10 0 60098 12600.00000 0 7074335.648 -24516402.928 278787.809 10 0 60098 13500.00000 0 6874565.177 -24328723.522 3479200.110 10 0 60098 14400.00000 0 6621635.340 -23743345.342 6612110.569 10 0 60098 15300.00000 0 6371299.839 -22765874.042 9616758.356 10 0 60098 16200.00000 0 6177669.178 -21415052.032 12434887.104 10 0 60098 17100.00000 0 6090709.595 -19722090.419 15011869.394 10 0 60098 18000.00000 0 6153926.024 -17729497.426 17297759.607 10 0 60098 18900.00000 0 6402326.765 -15489452.032 19248255.368 10 0 60098 19800.00000 0 6860755.578 -13061790.255 20825549.665 10 0 60098 20700.00000 0 7542661.479 -10511687.364 21999057.899 10 0 60098 21600.00000 0 8449358.249 -7907131.595 22746006.585 10 0 60098 22500.00000 0 9569805.322 -5316293.306 23051872.922 10 0 60098 23400.00000 0 10880920.128 -2804897.749 22910667.138 10 0 60098 24300.00000 0 12348409.959 -433709.324 22325052.259 10 0 60098 25200.00000 0 13928089.930 1743769.412 21306298.786 10 0 60098 26100.00000 0 15567633.348 3683289.394 19874074.614 10 0 60098 27000.00000 0 17208682.717 5351455.449 18056073.466 10 0 60098 27900.00000 0 18789234.335 6726869.577 15887488.009 10 0 60098 28800.00000 0 20246197.622 7800769.897 13410336.810 10 0 60098 29700.00000 0 21518022.571 8577139.040 10672657.125 10 0 60098 30600.00000 0 22547285.321 9072277.756 7727578.290 10 0 60098 31500.00000 0 23283123.018 9313861.966 4632293.139 10 0 60098 32400.00000 0 23683415.027 9339523.321 1446947.114 10 0 60098 33300.00000 0 23716617.789 9195013.572 -1766533.248 10 0 60098 34200.00000 0 23363174.960 8932030.921 -4945649.240 10 0 60098 35100.00000 0 22616442.244 8605801.045 -8028552.111 10 0 60098 36000.00000 0 21483086.810 8272516.087 -10955253.788 10 0 60098 36900.00000 0 19982943.469 7986741.106 -13668801.650 10 0 60098 37800.00000 0 18148332.846 7798898.887 -16116393.645 10 0 60098 38700.00000 0 16022869.588 7752940.622 -18250411.338 10 0 60098 39600.00000 0 13659810.301 7884302.044 -20029350.232 10 0 60098 40500.00000 0 11120010.249 8218232.219 -21418629.066 10 0 60098 41400.00000 0 8469574.229 8768566.326 -22391262.326 10 0 60098 42300.00000 0 5777299.749 9536994.726 -22928383.098 10 0 60098 43200.00000 0 3112019.100 10512859.550 -23019606.487 10 0 60098 44100.00000 0 539950.828 11673487.667 -22663226.971 10 0 60098 45000.00000 0 -1877829.460 12985046.239 -21866246.337 10 0 60098 45900.00000 0 -4087694.344 14403885.037 -20644232.050 10 0 60098 46800.00000 0 -6045450.862 15878309.271 -19021009.166 10 0 60098 47700.00000 0 -7717926.189 17350708.508 -17028192.003 10 0 60098 48600.00000 0 -9084088.080 18759952.349 -14704564.878 10 0 60098 49500.00000 0 -10135654.866 20043952.270 -12095324.012 10 0 60098 50400.00000 0 -10877171.268 21142282.031 -9251195.531 10 0 60098 51300.00000 0 -11325548.641 21998746.531 -6227446.789 10 0 60098 52200.00000 0 -11509090.719 22563791.176 -3082810.443 10 0 60098 53100.00000 0 -11466047.485 22796650.490 121657.586 10 0 60098 54000.00000 0 -11242759.523 22667145.695 3323763.820 10 0 60098 54900.00000 0 -10891472.273 22157055.784 6461383.388 10 0 60098 55800.00000 0 -10467913.321 21261004.547 9473663.030 10 0 60098 56700.00000 0 -10028735.585 19986826.341 12302197.642 10 0 60098 57600.00000 0 -9628934.577 18355395.214 14892157.710 10 0 60098 58500.00000 0 -9319348.793 16399924.355 17193346.125 10 0 60098 59400.00000 0 -9144348.459 14164764.799 19161164.505 10 0 60098 60300.00000 0 -9139809.805 11703752.956 20757470.996 10 0 60098 61200.00000 0 -9331459.923 9078175.087 21951313.735 10 0 60098 62100.00000 0 -9733661.722 6354432.405 22719526.524 10 0 60098 63000.00000 0 -10348690.170 3601502.707 23047175.850 10 0 60098 63900.00000 0 -11166530.625 888302.666 22927851.005 10 0 60098 64800.00000 0 -12165208.413 -1718941.048 22363791.829 10 0 60098 65700.00000 0 -13311636.861 -4159204.055 21365851.437 10 0 60098 66600.00000 0 -14562949.382 -6378956.780 19953294.104 10 0 60098 67500.00000 0 -15868261.089 -8334142.974 18153431.471 10 0 60098 68400.00000 0 -17170787.279 -9991762.773 16001103.073 10 0 60098 69300.00000 0 -18410230.961 -11330994.901 13538010.227 10 0 60098 70200.00000 0 -19525339.931 -12343811.625 10811915.118 10 0 60098 71100.00000 0 -20456526.316 -13035061.069 7875719.724 10 0 60098 72000.00000 0 -21148438.294 -13422013.679 4786441.858 10 0 60098 72900.00000 0 -21552375.290 -13533392.219 1604107.909 10 0 60098 73800.00000 0 -21628443.980 -13407926.483 -1609416.168 10 0 60098 74700.00000 0 -21347363.130 -13092494.245 -4791632.431 10 0 60098 75600.00000 0 -20691839.833 -12639927.586 -7880632.968 10 0 60098 76500.00000 0 -19657457.804 -12106578.195 -10816311.714 10 0 60098 77400.00000 0 -18253039.008 -11549745.566 -13541541.542 10 0 60098 78300.00000 0 -16500462.265 -11025077.891 -16003292.823 10 0 60098 79200.00000 0 -14433945.519 -10584056.591 -18153670.987 10 0 60098 80100.00000 0 -12098821.217 -10271671.732 -19950852.348 10 0 60098 81000.00000 0 -9549855.640 -10124387.324 -21359899.715 10 0 60098 81900.00000 0 -6849182.166 -10168482.970 -22353441.957 10 0 60098 82800.00000 0 -4063934.616 -10418842.204 -22912204.465 10 0 60098 83700.00000 0 -1263679.188 -10878238.811 -23025380.607 10 0 60098 84600.00000 0 1482248.296 -11537151.182 -22690837.361 10 0 60098 85500.00000 0 4107389.305 -12374112.513 -21915151.620 10 0 60099 0.00000 0 6550683.909 -13356581.817 -20713476.982 10 0 60099 900.00000 0 8758763.598 -14442299.537 -19109243.234 10 0 60099 1800.00000 0 10687917.909 -15581069.176 -17133696.337 10 0 60099 2700.00000 0 12305658.487 -16716891.587 -14825285.872 10 0 60099 3600.00000 0 13591813.457 -17790360.697 -12228913.492 10 0 60099 4500.00000 0 14539109.302 -18741220.160 -9395056.568 10 0 60099 5400.00000 0 15153217.354 -19510973.125 -6378784.291 10 0 60099 6300.00000 0 15452264.679 -20045435.124 -3238685.515 10 0 60099 7200.00000 0 15465831.577 -20297122.472 -35729.451 10 0 60099 8100.00000 0 15233479.368 -20227375.544 3167918.441 10 0 60099 9000.00000 0 14802871.806 -19808127.496 6310102.139 10 0 60099 9900.00000 0 14227570.320 -19023243.932 9329878.766 10 0 60099 10800.00000 0 13564596.797 -17869377.115 12168696.951 10 0 60099 11700.00000 0 12871867.065 -16356298.645 14771527.179 10 0 60099 12600.00000 0 12205603.394 -14506696.355 17087922.551 10 0 60099 13500.00000 0 11617834.893 -12355443.410 19072989.969 10 0 60099 14400.00000 0 11154090.680 -9948369.479 20688253.652 10 0 60099 15300.00000 0 10851382.508 -7340584.295 21902395.014 10 0 60099 16200.00000 0 10736561.224 -4594422.328 22691855.345 10 0 60099 17100.00000 0 10825115.825 -1777092.720 23041290.320 10 0 60099 18000.00000 0 11120465.512 1041869.306 22943867.923 10 0 60099 18900.00000 0 11613774.632 3793245.206 22401404.206 10 0 60099 19800.00000 0 12284298.812 6410761.834 21424334.091 10 0 60099 20700.00000 0 13100248.511 8833598.271 20031517.256 10 0 60099 21600.00000 0 14020134.704 11008667.782 18249882.118 10 0 60099 22500.00000 0 14994541.228 12892580.911 16113913.797 10 0 60099 23400.00000 0 15968250.240 14453208.596 13664994.914 10 0 60099 24300.00000 0 16882632.204 15670780.546 10950610.968 10 0 60099 25200.00000 0 17678200.264 16538473.243 8023434.779 10 0 60099 26100.00000 0 18297221.445 17062463.102 4940307.156 10 0 60099 27000.00000 0 18686274.283 17261442.713 1761133.272 10 0 60099 27900.00000 0 18798644.236 17165620.757 -1452283.803 10 0 60099 28800.00000 0 18596454.688 16815248.053 -4637449.292 10 0 60099 29700.00000 0 18052442.319 16258732.439 -7732398.539 10 0 60099 30600.00000 0 17151300.433 15550422.738 -10676909.872 10 0 60099 31500.00000 0 15890532.153 14748156.281 -13413683.927 10 0 60099 32400.00000 0 14280776.147 13910674.503 -15889465.630 10 0 60099 33300.00000 0 12345589.931 13095016.724 -18056086.261 10 0 60099 34200.00000 0 10120698.863 12354003.049 -19871404.754 10 0 60099 35100.00000 0 7652741.516 11733913.335 -21300129.664 10 0 60099 36000.00000 0 4997563.336 11272460.604 -22314505.771 10 0 60099 36900.00000 0 2218129.488 10997144.636 -22894852.155 10 0 60099 37800.00000 0 -617856.373 10924055.080 -23029941.633 10 0 60099 38700.00000 0 -3440528.526 11057174.326 -22717214.626 10 0 60099 39600.00000 0 -6180523.849 11388209.093 -21962823.761 10 0 60099 40500.00000 0 -8771624.338 11896957.392 -20781508.760 10 0 60099 41400.00000 0 -11153268.177 12552194.884 -19196304.417 10 0 60099 42300.00000 0 -13272825.606 13313042.817 -17238087.566 10 0 60099 43200.00000 0 -15087545.811 14130759.444 -14944972.065 10 0 60099 44100.00000 0 -16566094.856 14950879.053 -12361563.655 10 0 60099 45000.00000 0 -17689621.784 15715608.054 -9538089.329 10 0 60099 45900.00000 0 -18452309.786 16366376.836 -6529418.248 10 0 60099 46800.00000 0 -18861390.943 16846439.482 -3393993.424 10 0 60099 47700.00000 0 -18936625.458 17103411.490 -192695.157 10 0 60099 48600.00000 0 -18709268.781 17091638.296 3012341.430 10 0 60099 49500.00000 0 -18220571.406 16774294.585 6158931.619 10 0 60099 50400.00000 0 -17519875.622 16125125.759 9186045.476 10 0 60099 51300.00000 0 -16662390.216 15129758.084 12034988.031 10 0 60099 52200.00000 0 -15706737.375 13786522.142 14650532.510 10 0 60099 53100.00000 0 -14712375.288 12106754.626 16981984.999 10 0 60099 54000.00000 0 -13737004.818 10114565.287 18984160.455 10 0 60099 54900.00000 0 -12834068.943 7846077.971 20618251.865 10 0 60099 55800.00000 0 -12050449.538 5348176.490 21852576.479 10 0 60099 56700.00000 0 -11424457.592 2676806.375 22663185.457 10 0 60099 57600.00000 0 -10984200.625 -105098.218 23034325.781 10 0 60099 58500.00000 0 -10746395.332 -2929977.771 22958745.939 10 0 60099 59400.00000 0 -10715675.005 -5728204.272 22437839.642 10 0 60099 60300.00000 0 -10884420.784 -8430727.120 21481624.642 10 0 60099 61200.00000 0 -11233124.113 -10971699.585 20108556.574 10 0 60099 62100.00000 0 -11731265.687 -13290977.993 18345180.684 10 0 60099 63000.00000 0 -12338674.666 -15336390.700 16225627.191 10 0 60099 63900.00000 0 -13007311.708 -17065683.069 13790959.011 10 0 60099 64800.00000 0 -13683401.452 -18448057.784 11088383.437 10 0 60099 65700.00000 0 -14309825.030 -19465246.367 8170342.128 10 0 60099 66600.00000 0 -14828671.882 -20112067.092 5093496.459 10 0 60099 67500.00000 0 -15183842.935 -20396445.886 1917627.569 10 0 60099 68400.00000 0 -15323594.595 -20338899.372 -1295527.502 10 0 60099 69300.00000 0 -15202915.105 -19971501.916 -4483480.575 10 0 60099 70200.00000 0 -14785631.582 -19336380.496 -7584213.918 10 0 60099 71100.00000 0 -14046157.281 -18483801.340 -10537394.079 10 0 60099 72000.00000 0 -12970803.764 -17469929.697 -13285553.370 10 0 60099 72900.00000 0 -11558601.091 -16354358.087 -15775215.163 10 0 60099 73800.00000 0 -9821590.076 -15197508.113 -17957940.319 10 0 60099 74700.00000 0 -7784573.032 -14058016.247 -19791273.842 10 0 60099 75600.00000 0 -5484332.431 -12990214.442 -21239573.052 10 0 60099 76500.00000 0 -2968349.341 -12041812.147 -22274701.125 10 0 60099 77400.00000 0 -293074.590 -11251877.549 -22876572.696 10 0 60099 78300.00000 0 2478175.653 -10649202.886 -23033541.246 10 0 60099 79200.00000 0 5277612.619 -10251122.229 -22742621.199 10 0 60099 80100.00000 0 8035556.673 -10062830.901 -22009540.865 10 0 60099 81000.00000 0 10683101.016 -10077234.408 -20848625.603 10 0 60099 81900.00000 0 13154747.025 -10275332.357 -19282513.848 10 0 60099 82800.00000 0 15390902.113 -10627120.378 -17341711.777 10 0 60099 83700.00000 0 17340136.848 -11092971.179 -15063995.441 10 0 60099 84600.00000 0 18961108.183 -11625435.782 -12493672.153 10 0 60099 85500.00000 0 20224069.559 -12171388.293 -9680715.593 10 0 60100 0.00000 0 21111905.962 -12674423.078 -6679791.886 10 0 60100 900.00000 0 21620652.342 -13077402.961 -3549194.093 10 0 60100 1800.00000 0 21759473.934 -13325049.787 -349710.141 10 0 60100 2700.00000 0 21550112.272 -13366468.557 2856558.959 10 0 60100 3600.00000 0 21025820.202 -13157497.658 6007403.464 10 0 60100 4500.00000 0 20229832.291 -12662786.081 9041709.837 10 0 60100 5400.00000 0 19213435.818 -11857509.765 11900642.617 10 0 60100 6300.00000 0 18033724.043 -10728654.525 14528780.480 10 0 60100 7200.00000 0 16751126.538 -9275811.209 16875184.755 10 0 60100 8100.00000 0 15426820.331 -7511449.138 18894380.252 10 0 60100 9000.00000 0 14120130.267 -5460655.598 20547230.076 10 0 60100 9900.00000 0 12886027.102 -3160351.262 21801688.251 10 0 60100 10800.00000 0 11772827.525 -658013.078 22633416.345 10 0 60100 11700.00000 0 10820191.687 1990043.635 23026252.826 10 0 60100 12600.00000 0 10057501.384 4720753.964 22972526.534 10 0 60100 13500.00000 0 9502686.167 7466677.878 22473208.369 10 0 60100 14400.00000 0 9161546.149 10158563.433 21537898.162 10 0 60100 15300.00000 0 9027599.693 12727993.735 20184646.494 10 0 60100 16200.00000 0 9082462.445 15110008.996 18439614.188 10 0 60100 17100.00000 0 9296742.037 17245595.731 16336575.095 10 0 60100 18000.00000 0 9631411.288 19083940.158 13916270.755 10 0 60100 18900.00000 0 10039602.495 20584352.298 11225628.377 10 0 60100 19800.00000 0 10468747.548 21717780.571 8316856.401 10 0 60100 20700.00000 0 10862973.707 22467853.426 5246434.514 10 0 60100 21600.00000 0 11165653.691 22831404.167 2074017.417 10 0 60100 22500.00000 0 11322001.803 22818456.758 -1138726.406 10 0 60100 23400.00000 0 11281605.479 22451673.021 -4329317.947 10 0 60100 24300.00000 0 11000784.013 21765284.570 -7435688.958 10 0 60100 25200.00000 0 10444673.369 20803554.616 -10397396.676 10 0 60100 26100.00000 0 9588947.384 19618834.932 -13156807.426 10 0 60100 27000.00000 0 8421101.155 18269300.411 -15660225.169 10 0 60100 27900.00000 0 6941240.901 16816457.371 -17858942.304 10 0 60100 28800.00000 0 5162345.649 15322531.253 -19710191.669 10 0 60100 29700.00000 0 3109988.483 13847844.308 -21177980.931 10 0 60100 30600.00000 0 821527.988 12448293.981 -22233793.072 10 0 60100 31500.00000 0 -1655197.098 11173038.225 -22857139.498 10 0 60100 32400.00000 0 -4263616.128 10062484.875 -23035955.348 10 0 60100 33300.00000 0 -6940545.285 9146669.095 -22766829.776 10 0 60100 34200.00000 0 -9618588.881 8444086.360 -22055067.162 10 0 60100 35100.00000 0 -12228723.612 7961029.017 -20914578.507 10 0 60100 36000.00000 0 -14702958.580 7691453.219 -19367605.491 10 0 60100 36900.00000 0 -16976960.739 7617380.621 -17444282.823 10 0 60100 37800.00000 0 -18992536.957 7709816.726 -15182047.591 10 0 60100 38700.00000 0 -20699869.887 7930146.072 -12624907.214 10 0 60100 39600.00000 0 -22059415.096 8231944.396 -9822580.379 10 0 60100 40500.00000 0 -23043381.113 8563130.394 -6829527.776 10 0 60100 41400.00000 0 -23636731.517 8868365.498 -3703891.639 10 0 60100 42300.00000 0 -23837668.184 9091599.639 -506364.935 10 0 60100 43200.00000 0 -23657576.586 9178654.974 2700987.590 10 0 60100 44100.00000 0 -23120436.578 9079738.024 5855933.427 10 0 60100 45000.00000 0 -22261724.429 8751773.828 8897277.795 10 0 60100 45900.00000 0 -21126853.096 8160463.348 11766047.212 10 0 60100 46800.00000 0 -19769216.877 7281977.106 14406628.352 10 0 60100 47700.00000 0 -18247922.904 6104213.364 16767840.364 10 0 60100 48600.00000 0 -16625304.702 4627567.500 18803920.456 10 0 60100 49500.00000 0 -14964321.790 2865179.556 20475404.309 10 0 60100 50400.00000 0 -13325953.738 842648.684 21749885.012 10 0 60100 51300.00000 0 -11766696.991 -1402774.743 22602636.614 10 0 60100 52200.00000 0 -10336268.259 -3823487.087 23017090.889 10 0 60100 53100.00000 0 -9075609.575 -6363266.932 22985158.547 10 0 60100 54000.00000 0 -8015277.514 -8959377.578 22507388.888 10 0 60100 54900.00000 0 -7174283.178 -11544950.817 21592964.692 10 0 60100 55800.00000 0 -6559430.886 -14051554.475 20259531.992 10 0 60100 56700.00000 0 -6165182.967 -16411838.358 18532867.320 10 0 60100 57600.00000 0 -5974056.134 -18562149.670 16446387.889 10 0 60100 58500.00000 0 -5957532.895 -20445009.754 14040513.183 10 0 60100 59400.00000 0 -6077449.776 -22011349.291 11361889.253 10 0 60100 60300.00000 0 -6287804.026 -23222408.782 8462489.842 10 0 60100 61200.00000 0 -6536902.661 -24051224.550 5398611.120 10 0 60100 62100.00000 0 -6769762.876 -24483637.717 2229779.171 10 0 60100 63000.00000 0 -6930661.954 -24518783.324 -982408.574 10 0 60100 63900.00000 0 -6965728.019 -24169038.646 -4175485.079 10 0 60100 64800.00000 0 -6825461.004 -23459432.574 -7287334.659 10 0 60100 65700.00000 0 -6467075.820 -22426540.790 -10257408.571 10 0 60100 66600.00000 0 -5856567.194 -21116913.393 -13027910.661 10 0 60100 67500.00000 0 -4970407.335 -19585101.468 -15544929.095 10 0 60100 68400.00000 0 -3796803.190 -17891366.126 -17759491.410 10 0 60100 69300.00000 0 -2336458.839 -16099166.976 -19628521.738 10 0 60100 70200.00000 0 -602809.579 -14272536.096 -21115681.281 10 0 60100 71100.00000 0 1378283.301 -12473448.227 -22192075.627 10 0 60100 72000.00000 0 3569365.228 -10759297.764 -22836815.276 10 0 60100 72900.00000 0 5922714.489 -9180588.285 -23037418.824 10 0 60100 73800.00000 0 8382106.997 -7778931.051 -22790051.400 10 0 60100 74700.00000 0 10884946.518 -6585435.688 -22099594.156 10 0 60100 75600.00000 0 13364671.899 -5619559.484 -20979543.916 10 0 60100 76500.00000 0 15753341.333 -4888462.304 -19451745.271 10 0 60100 77400.00000 0 17984286.244 -4386892.836 -17545960.624 10 0 60100 78300.00000 0 19994724.533 -4097609.419 -15299286.738 10 0 60100 79200.00000 0 21728224.611 -3992316.325 -12755429.265 10 0 60100 80100.00000 0 23136917.831 -4033074.644 -9963849.497 10 0 60100 81000.00000 0 24183367.499 -4174127.066 -6978800.081 10 0 60100 81900.00000 0 24842017.006 -4364058.428 -3858268.580 10 0 60100 82800.00000 0 25100157.222 -4548199.913 -662849.650 10 0 60100 83700.00000 0 24958373.531 -4671174.565 2545432.022 10 0 60100 84600.00000 0 24430454.614 -4679476.025 5704324.988 10 0 60100 85500.00000 0 23542767.679 -4523971.089 8752556.947 99